STARLINK-3884, 52497

Orbit data source: Space-Track

STARLINK-3884, 52497 is a payload satellite owned by SpaceX/Seattle (US) in LEO that was launched on Fri, 06 May 2022 UTC via an FALCON 9 launch vehicle from the Air Force Eastern Test Range (AFETR). Payload-class satellites include a variety of spacecraft equipped with specific instruments for various scientific and technological missions. These include communications satellites like Starlink; space stations such as the ISS; scientific satellites like the Hubble; Earth observation satellites from companies like Planet Labs, Umbra, and HawkEye 360; GPS; miniature CubeSats for education and research; and military/defense satellites.

Loading next visibility...
Identifier
52497, 2022-049AY
Orbit
LEO
Country
Flag of USUS
Related business
Manufacturer
SpaceX/Seattle
Mission
Operational Commercial Communications
Bus & Motor
STARLINK, Unknown motor
Mass
297 kg wet, ~220 kg dry
Launch date (UTC)
2022-05-06 (4 years ago)
Launch vehicle
FALCON 9
Launch site
Air Force Eastern Test Range (AFETR)
Object type
Payload
Rocket body
Debris
Shape & HBR
Box + 1 Pan, 10.1 m
Radar Cross Section
13.562 m², Large (>1 m²)

Expand to show TLE details & history
Last TLE update: 15 hours ago

TLE from 15 hours ago
0 STARLINK-3884
1 52497U 22049AY  26235.79642781  .00002636  00000-0  91436-4 0  9990
2 52497  53.1612  13.4294 0001529 116.9289 243.1869 15.33551214237693
Epoch: 2026-08-23T19:06Z
TLE epoch observation values (Epoch: 2026-08-23T19:06:51.362Z)
Latitude
-0.00008°
Longitude
114.62799°
Altitude
466.6 km
Speed
7.634 km/s
True Right ascension
00h 53m 43s
True Declination
0° 00' 00"
Sunlit
Object was in full shadow at epoch
Visualization orbit readout
Latitude
Unknown
Longitude
Unknown
Altitude
Unknown
Speed
Unknown
Apparent Right ascension
Unknown
Apparent Declination
Unknown
Sunlit
N/A
Visualization observer readout
Local Sidereal Time
00:47:22
Azimuth
Unknown
Elevation
Unknown
Doppler factor
Unknown
Orbital elements
Apogee altitude
466.53 km
Perigee altitude
464.437 km
Semi-major axis
6,843.621 km
Eccentricity
0.00015
Inclination
53.1612°
RAAN
13.4294°
Arg. of periapsis
116.9289°
True anomaly
243.17126°
Mean anomaly
243.1869°
Eccentric anomaly
243.17908°
Mean motion
3.83367 °/min
Orbital period
93.9 mins
BSTAR
0.000091436
Loading maneuver chart data...
Computing Atmospheric mass density...
Loading historical data...
Loading historical data...
Loading historical data...
Loading historical data...
Loading historical data...
Loading historical data...
Loading historical data...

Documentation

Showing up to 5 results
|